Tracking 31027 objects as of 19-Jul-2025
HD Live streaming from Space Station
objects crossing your sky now

SL-8 R/B

Track SL-8 R/B now!
10-day predictions


NORAD ID: 16682
Int'l Code: 1986-030B
Perigee: 764.8 km
Apogee: 785.4 km
Inclination: 74.0 °
Period: 100.2 minutes
Semi major axis: 7146 km
RCS: 4.4473 m2 (large)
Launch date: April 17, 1986
Source: Commonwealth of Independent States (former USSR) (CIS)
Launch site: PLESETSK MISSILE AND SPACE COMPLEX (PKMTR)

Note: This is a ROCKET BODY
Your satellite tracking list
ARIANE 5 R/B
Track 1 satellite(s)




NASA's NSSDC Master Catalog

Two Line Element Set (TLE):
1 16682U 86030B   25199.44489424  .00000059  00000-0  28839-4 0  9993
2 16682  74.0232 200.1899 0014419 187.7297 281.3684 14.37138247 54801
Source of the keplerian elements: AFSPC